Hourly Data Report for January 08, 2021

TORONTO CITY
ONTARIO
Current Station Operator: ECCC - MSC

43°40'00.000" N
79°24'00.000" W
112.50 m
6158355
71508
XTO

Download Data

Hourly Data (January 2021)
Hourly Data Report for January 8, 2021
TIME
LST
Temp Definition
°C
Dew Point Definition
°C
Rel Hum Definition
%
Precip. Amount Definition
mm

Wind Dir Definition
10's deg

Wind Spd Definition
km/h
Visibility Definition
km
Stn Press Definition
kPa
Hmdx Definition


Wind Chill Definition


Weather Definition


00:00 -4.0 -9.1 68 0.0       101.06     LegendNANA
01:00 -4.8 -9.5 69 0.0       101.05     LegendNANA
02:00 -5.1 -9.8 70 0.0       101.04     LegendNANA
03:00 -5.9 -10.4 70 0.0       101.03     LegendNANA
04:00 -6.5 -10.2 75 0.0       101.03     LegendNANA
05:00 -7.4 -10.6 78 0.0       101.00     LegendNANA
06:00 -7.1 -10.3 78 0.0       100.97     LegendNANA
07:00 -7.2 -9.9 81 0.0       100.95     LegendNANA
08:00 -7.4 -9.9 82 0.0       100.99     LegendNANA
09:00 -7.9 -10.3 83 0.0       100.99     LegendNANA
10:00 -7.6 -10.7 78 0.0       100.96     LegendNANA
11:00 -5.7 -11.2 65 0.0       100.91     LegendNANA
12:00 -4.2 -10.7 61 0.0       100.83     LegendNANA
13:00 -3.3 -11.2 55 0.0       100.75     LegendNANA
14:00 -2.0 -11.0 50 0.0       100.69     LegendNANA
15:00 -1.8 -11.9 46 0.0       100.65     LegendNANA
16:00 -2.1 -7.8 65 0.0       100.68     LegendNANA
17:00 -1.9 -11.2 49 0.0       100.71     LegendNANA
18:00 -2.9 -11.0 54 0.0       100.71     LegendNANA
19:00 -3.2 -11.6 52 0.0       100.73     LegendNANA
20:00 -3.5 -12.0 52 0.0       100.71     LegendNANA
21:00 -3.0 -11.6 51 0.0       100.70     LegendNANA
22:00 -2.0 -10.6 52 0.0       100.71     LegendNANA
23:00 -2.8 -9.9 58 0.0       100.69     LegendNANA

Notes on Data Quality.

Legend

  • E = Estimated
  • M = Missing
  • NA = Not Available*
  • [empty] = Indicates an unobserved value
Date modified: